User: anonymous   Login
Location: Domont
(49.0278°N, 2.3264°E)
Time: 00:40:38
(UTC+00:00)
Language:

SeaSat 1 - Orbit

View from above orbital plane
View from above orbital plane
View from above satellite
View from above satellite

Ground track
Ground track

The orbit data is extracted from the following two-line orbital elements,

1 10967U 78064A   22026.46355565  .00000014  00000-0  44285-4 0  9991
2 10967 107.9966 219.5305 0001187 248.8670 111.2348 14.43934681289383
Epoch (UTC): 26 January 2022 11:07:31
Eccentricity: 0.0001187
inclination: 107.9966°
perigee height: 744 km
apogee height: 746 km
right ascension of ascending node: 219.5305°
argument of perigee: 248.8670°
revolutions per day: 14.43934681
mean anomaly at epoch: 111.2348°
orbit number at epoch: 28938

The dashed part of the orbit path shows where the satellite is in the earth's shadow,  

DLR